    Orbital elements:
    2021 MK1                                            PHA, Earth MOID = 0.0014 AU
    Epoch 2021 July 5.0 TT = JDT 2459400.5                  Veres                   
    M 164.79386              (2000.0)            P               Q                  
    n   1.35794117     Peri.  198.99328     -0.37273114     -0.86756854             
    a   0.8076355      Node   274.01869     +0.88837216     -0.23112070             
    e   0.2881185      Incl.   19.27166     +0.26807911     -0.44034993             
    P   0.73           H   21.38          G   0.15           U   7                  
    Residuals in seconds of arc
    210623 T08  0.0   0.2+    210624 Y00  0.1+  0.0     210625 587  0.5+  0.3-
    210623 T08  0.1-  0.1-    210624 Y00  0.5-  0.4-    210625 587  0.9+  0.3-
    210623 T08  0.2+  0.2-    210624 T08  0.2-  0.6+    210625 587  0.3+  0.2+
    210623 T08  0.1-  0.1+    210624 T08 (0.5-  1.1+)   210625 J69  0.0   0.8+
    210623 L01  0.2+  1.0+    210624 T08  0.1+  0.2-    210625 587  0.1-  0.2-
    210623 L01  0.1-  0.6+    210624 T08  0.1-  0.0     210625 J69  0.4+  0.2-
    210624 L01  0.0   0.3+    210625 160  0.3+  0.6+    210625 587  0.3-  0.0
    210624 L01  0.4-  0.0     210625 160  0.1+  0.7-    210625 595  0.3-  0.5-
    210624 L01  0.1-  0.3+    210625 160  0.3+  0.7-    210625 K83  0.1+  0.2+
    210624 L01  0.0   0.3+    210625 160  0.2-  0.1-    210625 K83  0.2-  0.2+
    210624 L01  0.1+  0.0     210625 160  0.2+  0.0     210625 595  0.3-  0.1+
    210624 J95  0.3+  0.2-    210625 L81  0.4+  0.1-    210625 K83  0.1+  0.2+
    210624 J95  0.0   0.4-    210625 L81  0.0   0.1+    210626 B49  0.0   0.0
    210624 J95  0.0   0.2-    210625 B37  0.1-  0.1-    210626 B49  0.2-  0.4-
    210624 J95  0.1-  0.3-    210625 B37  0.1+  0.0     210626 B49  0.3-  0.4-
    210624 J95  0.1+  0.3-    210625 B37  0.0   0.1+    210626 B49  0.2+  0.1-
    210624 L01  0.1-  0.0     210625 B37  0.2+  0.2+    210626 G18  1.3+  0.2-
    210624 L01  0.1-  0.2-    210625 B37  0.2-  0.2+    210626 203  0.3-  0.2-
    210624 L01  0.3-  0.0     210625 B37  0.0   0.0     210626 203  0.0   0.2-
    210624 L01  0.1+  0.1-    210625 I22  0.0   0.4+    210626 G18  0.1-  0.6-
    210624 L01  0.0   0.1+    210625 I22  0.6-  1.0+
    210624 Y00  0.0   0.1-    210625 587  0.1+  0.4+
    
    Ephemeris:
    2021 MK1                 a,e,i = 0.81, 0.29, 19                  q = 0.5749
    Date    TT    R. A. (2000) Decl.     Delta      r    Elong.  Phase     V
    2021 05 27    02 05 27.2 -32 43 12   0.1820  0.9422    62.2   108.0    21.6
    ...
    2021 06 11    01 21 57.9 -24 36 16   0.1063  0.9917    74.2    99.9    20.1
    ...
    2021 06 19    00 35 24.8 -10 46 41   0.06891 1.0113    84.0    92.1    18.9
    ...
    2021 06 25    23 26 45.8 +12 35 03   0.05012 1.0227    95.7    81.5    17.8
    2021 06 26    23 10 14.7 +17 47 51   0.04869 1.0243    97.9    79.4    17.6
    2021 06 27    22 51 52.8 +23 09 02   0.04792 1.0258    99.9    77.5    17.5
    ...
    2021 07 03    20 28 20.1 +47 57 19   0.05703 1.0335   105.6    71.4    17.7
    ...
    2021 07 11    17 48 48.4 +53 17 52   0.09069 1.0393   102.0    73.1    18.8
    ...
    2021 07 26    16 14 02.2 +48 34 53   0.1663  1.0365    92.6    78.2    20.3
    
    M. P. C. Staff               (C) Copyright 2021 MPC           M.P.E.C. 2021-M90
    


    Read MPEC 2021-M89 Read MPEC 2021-M91


    MPEC number:

    Enter an MPEC number in one of the following forms:

    • 1997-B01 (the full form)
    • J97B01 (the packed version of the full form)
    • B01 (the abbreviated form)